Terug naar catalogus

THOR ABLESTAR DEB

ActiefLEO
NORAD 409·DEBRIS·🇺🇸 United States

Gelanceerd Jun 29, 1961 vanaf Cape Canaveral Space Force Station

Loading…

Volgende Passages (komende 24 uur)

TLE

VersSource: Space-Track

Epoch: Sep 13, 2026, 23:55 UTC

1 00409U 61015EJ  26256.99676911  .00000688  00000-0  29911-3 0  9992
2 00409  66.7115 117.7870 0056968 114.8217 245.8821 14.29116767353993

Volg THOR ABLESTAR DEB in realtime met AllMySat

Download on the App Store